FW7496 Weather Reports


time (UTC)temp
F
wind
direction
speed
knots
gust
knots
rain 1hr
in
rain 24hr
in
rain mn
in
humidity
%
barometer
mb
20260507012531 59 88 0.0 0.0 0.00 0.06 0.06 91 1063.2
20260507012026 59 88 0.0 0.0 0.00 0.06 0.06 90 1063.3
20260507011524 60 88 0.0 0.0 0.00 0.06 0.06 87 1063.1
20260507011019 60 88 0.0 0.0 0.00 0.06 0.06 86 1062.7
20260507010514 61 88 0.0 0.0 0.00 0.06 0.06 86 1062.8
20260507010011 61 88 0.0 0.0 0.00 0.06 0.06 85 1062.8
20260507005508 61 80 0.0 0.0 0.00 0.06 0.06 84 1062.6
20260507005004 62 73 0.9 0.9 0.00 0.06 0.06 82 1062.7
20260507004501 62 65 0.9 1.7 0.00 0.06 0.06 81 1062.5
20260507003959 62 92 0.9 2.6 0.00 0.06 0.06 80 1062.5
20260507003455 63 99 1.7 3.5 0.00 0.06 0.06 79 1062.6
20260507002949 63 66 0.9 3.5 0.00 0.06 0.06 78 1062.5
20260507002446 64 61 0.9 2.6 0.00 0.06 0.06 76 1062.7
20260507001943 64 83 2.6 2.6 0.00 0.06 0.06 75 1062.3
20260507001439 64 84 3.5 3.5 0.00 0.06 0.06 75 1062.1
20260507000937 64 83 1.7 3.5 0.00 0.06 0.06 75 1062.4
20260507000434 64 68 0.9 5.2 0.00 0.06 0.06 75 1062.4
20260506235928 64 81 1.7 3.5 0.00 0.06 0.06 74 1062.5
20260506235426 64 116 2.6 3.5 0.00 0.06 0.06 74 1062.4
20260506234921 64 69 2.6 3.5 0.00 0.06 0.06 74 1062.3
20260506234420 65 79 0.9 2.6 0.00 0.06 0.06 74 1062.2
20260506233917 65 0 0.9 2.6 0.00 0.06 0.06 73 1062.2
20260506233413 64 68 2.6 3.5 0.00 0.06 0.06 72 1062.2
20260506232910 65 68 3.5 5.2 0.00 0.06 0.06 72 1062.1
20260506232406 65 46 2.6 3.5 0.00 0.06 0.06 73 1062.0
20260506231902 65 353 1.7 2.6 0.00 0.06 0.06 73 1062.1
20260506231359 65 23 0.9 1.7 0.00 0.06 0.06 72 1062.0
20260506230857 65 65 0.0 1.7 0.00 0.06 0.06 73 1062.2
20260506230353 65 44 0.0 1.7 0.00 0.06 0.06 72 1062.2
20260506225849 65 320 1.7 1.7 0.00 0.06 0.06 71 1062.0
20260506225347 66 52 1.7 2.6 0.00 0.06 0.06 72 1061.7
20260506224844 65 302 0.9 2.6 0.00 0.06 0.06 72 1061.9
20260506224341 66 68 3.5 3.5 0.00 0.06 0.06 71 1061.9
20260506223837 66 11 0.0 3.5 0.00 0.06 0.06 71 1061.8
20260506223332 66 56 1.7 2.6 0.00 0.06 0.06 72 1061.7
20260506222830 65 58 1.7 6.1 0.00 0.06 0.06 72 1061.7
20260506222325 65 30 0.9 2.6 0.00 0.06 0.06 73 1061.6
20260506221819 65 40 1.7 2.6 0.00 0.06 0.06 74 1061.7
20260506221316 64 61 1.7 3.5 0.00 0.06 0.06 74 1061.7
20260506220814 64 53 1.7 2.6 0.00 0.06 0.06 72 1061.6
20260506220313 64 33 2.6 3.5 0.00 0.06 0.06 74 1061.6
20260506215810 63 118 0.9 2.6 0.00 0.06 0.06 75 1061.7
20260506215306 63 119 0.0 1.7 0.00 0.06 0.06 77 1061.7
20260506214802 63 37 1.7 3.5 0.00 0.06 0.06 75 1061.7
20260506214259 62 59 0.9 3.5 0.00 0.06 0.06 77 1062.0
20260506213757 62 71 1.7 6.1 0.00 0.06 0.06 78 1062.0
20260506213254 62 73 1.7 3.5 0.00 0.06 0.06 77 1062.2
20260506212751 62 45 0.0 1.7 0.00 0.06 0.06 79 1062.1
20260506212247 61 83 0.0 1.7 0.00 0.06 0.06 79 1062.0
20260506211742 61 31 1.7 2.6 0.00 0.06 0.06 79 1062.1
20260506211239 62 68 2.6 3.5 0.00 0.06 0.06 78 1062.0
20260506210736 62 78 1.7 2.6 0.00 0.06 0.06 78 1062.2
20260506210233 61 44 0.9 0.9 0.00 0.06 0.06 79 1062.3
20260506205731 62 318 1.7 3.5 0.00 0.06 0.06 77 1062.1
20260506205226 61 338 0.9 1.7 0.00 0.06 0.06 79 1062.1
20260506204723 61 23 0.9 1.7 0.00 0.06 0.06 79 1062.2
20260506204220 61 61 0.9 2.6 0.00 0.06 0.06 79 1062.2
20260506203718 61 62 1.7 1.7 0.00 0.06 0.06 79 1062.6
20260506203215 60 82 0.9 1.7 0.00 0.06 0.06 80 1062.4
20260506202713 60 19 0.9 2.6 0.00 0.06 0.06 80 1062.3
20260506202208 60 243 1.7 3.5 0.00 0.06 0.06 82 1062.3
20260506201706 59 36 1.7 3.5 0.00 0.06 0.06 80 1062.5
20260506201202 59 58 2.6 2.6 0.00 0.06 0.06 81 1062.4
20260506200659 59 4 0.9 3.5 0.00 0.06 0.06 82 1062.5
20260506200156 59 74 1.7 2.6 0.00 0.06 0.06 82 1062.8
20260506195652 59 327 1.7 1.7 0.00 0.06 0.06 83 1062.8
20260506195148 59 45 0.9 3.5 0.00 0.06 0.06 83 1062.8
20260506194646 58 311 1.7 5.2 0.00 0.06 0.06 83 1062.8
20260506194142 58 37 1.7 2.6 0.00 0.06 0.06 83 1063.2
20260506193640 58 320 2.6 6.1 0.00 0.06 0.06 83 1063.1
20260506193137 58 307 0.9 3.5 0.00 0.06 0.06 84 1063.2
20260506192634 58 331 0.0 2.6 0.00 0.06 0.06 84 1063.2
20260506192130 58 10 0.9 3.5 0.00 0.06 0.06 85 1063.4
20260506191627 58 0 3.5 6.1 0.00 0.06 0.06 84 1063.4
20260506191123 57 85 0.0 3.5 0.00 0.06 0.06 86 1063.4
20260506190621 57 51 2.6 5.2 0.00 0.06 0.06 86 1063.3
20260506190117 56 14 1.7 5.2 0.00 0.06 0.06 86 1063.4
20260506185614 56 347 1.7 2.6 0.00 0.06 0.06 87 1063.6
20260506185110 56 353 0.9 3.5 0.00 0.06 0.06 85 1063.6
20260506184608 56 326 1.7 1.7 0.00 0.06 0.06 87 1063.6
20260506184106 55 58 2.6 5.2 0.00 0.06 0.06 87 1063.6
20260506183601 55 43 0.0 1.7 0.00 0.06 0.06 89 1064.0
20260506183058 54 299 0.9 6.1 0.00 0.06 0.06 88 1064.1
20260506182555 54 340 2.6 5.2 0.00 0.06 0.06 89 1063.6
20260506182052 54 311 0.9 5.2 0.00 0.06 0.06 90 1063.9
20260506181550 53 80 1.7 6.1 0.00 0.06 0.06 90 1063.6
20260506181047 54 301 0.9 7.0 0.00 0.06 0.06 90 1063.9
20260506180543 54 53 0.9 5.2 0.00 0.06 0.06 90 1063.9
20260506180040 53 347 0.9 2.6 0.00 0.06 0.06 91 1063.8
20260506175536 53 35 1.7 3.5 0.00 0.06 0.06 91 1063.7
20260506175033 53 79 1.7 5.2 0.00 0.06 0.06 92 1063.7
20260506174532 53 337 1.7 3.5 0.00 0.06 0.06 92 1063.8
20260506174027 53 324 3.5 5.2 0.00 0.06 0.06 92 1063.8
20260506173525 53 13 1.7 7.8 0.00 0.06 0.06 92 1063.7
20260506173022 52 328 0.9 5.2 0.00 0.06 0.06 94 1063.6
20260506172519 51 99 2.6 8.7 0.00 0.06 0.06 95 1063.9
20260506172015 51 18 1.7 7.0 0.00 0.06 0.06 96 1063.4
20260506171513 51 359 0.9 6.1 0.00 0.06 0.06 97 1063.4
20260506171011 51 327 3.5 6.1 0.00 0.06 0.06 96 1063.3
20260506170508 51 157 2.6 6.1 0.00 0.06 0.06 95 1063.5
20260506170005 52 6 2.6 7.8 0.00 0.06 0.06 95 1063.5
20260506165504 52 27 4.3 7.0 0.00 0.06 0.06 94 1063.5
20260506164959 52 309 3.5 6.1 0.00 0.06 0.06 94 1063.4
20260506164456 53 1 4.3 6.1 0.00 0.06 0.06 94 1063.1
20260506163954 52 337 2.6 5.2 0.00 0.06 0.06 94 1063.1
20260506163449 52 356 3.5 7.0 0.00 0.06 0.06 95 1063.0
20260506162944 52 324 4.3 6.1 0.00 0.06 0.06 95 1063.2
20260506162442 52 345 1.7 3.5 0.00 0.06 0.06 95 1063.3
20260506161939 52 26 2.6 2.6 0.00 0.06 0.06 96 1063.2
20260506161437 52 308 0.9 2.6 0.00 0.06 0.06 96 1063.3
20260506160934 52 332 2.6 5.2 0.00 0.06 0.06 95 1063.2
20260506160431 52 349 1.7 3.5 0.00 0.06 0.06 96 1063.3
20260506155929 52 62 0.0 0.9 0.00 0.06 0.06 96 1063.2
20260506155426 51 34 0.0 3.5 0.00 0.06 0.06 96 1063.3
20260506153548 52 326 2.6 6.1 0.00 0.06 0.06 96 1062.6
20260506153045 51 66 0.9 3.5 0.00 0.06 0.06 95 1062.7
20260506152542 52 73 1.7 2.6 0.00 0.06 0.06 96 1062.7
20260506152040 52 338 4.3 5.2 0.00 0.06 0.06 95 1062.5
20260506151538 52 76 1.7 6.1 0.00 0.06 0.06 95 1062.4
20260506151035 52 93 3.5 7.0 0.00 0.06 0.06 94 1062.1
20260506150531 52 18 2.6 8.7 0.00 0.06 0.06 97 1061.1
20260506150028 51 338 2.6 8.7 0.00 0.06 0.06 98 1061.2
20260506145525 50 351 1.7 5.2 0.00 0.06 0.06 99 1061.3
20260506145022 50 42 2.6 5.2 0.07 0.06 0.06 99 1061.9
20260506144519 50 352 0.9 5.2 0.07 0.06 0.06 99 1062.3
20260506144016 49 343 0.9 3.5 0.05 0.05 0.05 99 1062.3
20260506143514 49 112 3.5 7.8 0.05 0.05 0.05 99 1061.9
20260506143012 49 81 3.5 7.0 0.00 0.04 0.04 98 1062.7
20260506142509 49 134 1.7 5.2 0.00 0.04 0.04 98 1063.6
20260506142008 49 0 1.7 3.5 0.00 0.04 0.04 98 1063.7
20260506141505 49 83 0.9 1.7 0.07 0.04 0.04 98 1064.3
20260506141003 49 262 0.9 2.6 0.07 0.04 0.04 98 1064.4
20260506140500 49 40 2.6 3.5 0.00 0.03 0.03 98 1063.3
20260506135957 49 71 0.9 2.6 0.00 0.03 0.03 97 1063.6
20260506135454 49 59 1.7 5.2 0.00 0.03 0.03 97 1063.2
20260506134950 49 309 3.5 7.0 0.00 0.03 0.03 97 1063.4
20260506134446 49 336 0.9 6.1 0.05 0.03 0.03 96 1063.5
20260506133943 50 0 1.7 6.1 0.19 0.03 0.03 95 1062.8
20260506133440 50 265 0.9 3.5 0.14 0.02 0.02 92 1063.5
20260506132937 51 357 2.6 5.2 0.00 0.00 0.00 90 1064.7
20260506132434 51 45 0.9 6.1 0.00 0.00 0.00 89 1063.2
20260506131931 51 316 3.5 5.2 0.00 0.00 0.00 89 1061.6
20260506131428 51 358 4.3 8.7 0.00 0.00 0.00 89 1061.5
20260506130925 51 350 6.1 8.7 0.00 0.00 0.00 89 1061.9
20260506130421 51 42 1.7 3.5 0.00 0.00 0.00 89 1062.5
20260506125919 51 317 0.0 7.0 0.00 0.00 0.00 89 1062.7
20260506125417 52 323 2.6 9.6 0.00 0.00 0.00 89 1062.5
20260506124915 52 24 1.7 2.6 0.00 0.00 0.00 89 1062.3
20260506124412 52 100 1.7 6.1 0.00 0.00 0.00 89 1062.1
20260506123910 52 337 2.6 3.5 0.00 0.00 0.00 89 1061.9
20260506123408 52 9 1.7 6.1 0.00 0.00 0.00 89 1061.6
20260506122905 52 10 1.7 8.7 0.00 0.00 0.00 89 1061.4
20260506122402 53 23 1.7 7.0 0.00 0.00 0.00 89 1061.0
20260506121900 53 29 1.7 5.2 0.00 0.00 0.00 89 1060.9
20260506121357 53 316 1.7 5.2 0.00 0.00 0.00 90 1060.7
20260506120854 53 2 3.5 6.1 0.00 0.00 0.00 90 1061.0
20260506120351 53 24 1.7 1.7 0.00 0.00 0.00 89 1060.5
20260506115849 53 350 1.7 6.1 0.00 0.00 0.00 89 1060.6
20260506115347 53 44 1.7 3.5 0.00 0.00 0.00 89 1060.5
20260506114844 53 24 1.7 5.2 0.00 0.00 0.00 89 1060.6
20260506114342 53 322 2.6 7.0 0.00 0.00 0.00 89 1060.6
20260506113841 53 305 3.5 5.2 0.00 0.00 0.00 89 1060.8
20260506113338 53 319 3.5 6.1 0.00 0.00 0.00 89 1060.6
20260506112834 53 313 0.9 5.2 0.00 0.00 0.00 89 1060.6
20260506112331 54 228 1.7 6.1 0.00 0.00 0.00 89 1060.7
20260506111829 54 22 1.7 3.5 0.00 0.00 0.00 89 1060.7
20260506111327 54 1 0.9 3.5 0.00 0.00 0.00 89 1060.6
20260506110824 54 44 0.9 3.5 0.00 0.00 0.00 89 1060.8
20260506110321 54 320 3.5 3.5 0.00 0.00 0.00 89 1060.6
20260506105818 54 315 3.5 7.8 0.00 0.00 0.00 88 1060.4
20260506105314 54 331 2.6 7.0 0.00 0.00 0.00 88 1060.4
20260506104812 55 358 1.7 6.1 0.00 0.00 0.00 88 1060.2
20260506104310 55 331 0.9 2.6 0.00 0.00 0.00 88 1060.2
20260506103807 55 317 0.9 3.5 0.00 0.00 0.00 88 1059.9
20260506103304 55 336 3.5 6.1 0.00 0.00 0.00 88 1059.7
20260506102802 55 281 0.9 2.6 0.00 0.00 0.00 88 1059.4
20260506102259 55 17 1.7 2.6 0.00 0.00 0.00 88 1059.4
20260506101757 55 12 0.9 6.1 0.00 0.00 0.00 88 1059.5
20260506101252 55 27 0.9 2.6 0.00 0.00 0.00 88 1059.3
20260506100750 55 14 1.7 2.6 0.00 0.00 0.00 89 1059.2
20260506100248 55 40 1.7 2.6 0.00 0.00 0.00 88 1059.3
20260506095747 55 340 1.7 2.6 0.00 0.00 0.00 88 1059.4
20260506095243 55 260 1.7 2.6 0.00 0.00 0.00 88 1059.2
20260506094740 55 59 1.7 5.2 0.00 0.00 0.00 88 1059.4
20260506094238 55 314 2.6 3.5 0.00 0.00 0.00 88 1059.4
20260506093737 55 70 0.0 2.6 0.00 0.00 0.00 88 1059.2
20260506093233 55 9 2.6 5.2 0.00 0.00 0.00 88 1059.2
20260506092731 55 22 1.7 2.6 0.00 0.00 0.00 88 1059.1
20260506092229 55 33 1.7 3.5 0.00 0.00 0.00 88 1059.0
20260506091726 55 40 0.9 3.5 0.00 0.00 0.00 88 1058.8
20260506091223 55 341 1.7 5.2 0.00 0.00 0.00 88 1059.0
20260506090721 55 39 1.7 3.5 0.00 0.00 0.00 89 1059.0
20260506090218 55 40 2.6 3.5 0.00 0.00 0.00 89 1058.7
20260506085715 55 1 2.6 5.2 0.00 0.00 0.00 89 1058.8
20260506085211 55 323 0.9 3.5 0.00 0.00 0.00 89 1058.8
20260506084708 55 53 0.0 2.6 0.00 0.00 0.00 89 1058.8
20260506084204 55 356 0.9 3.5 0.00 0.00 0.00 89 1059.1
20260506083701 56 357 1.7 2.6 0.00 0.00 0.00 89 1059.1
20260506083159 56 40 0.0 1.7 0.00 0.00 0.00 89 1058.8
20260506082656 56 45 0.9 5.2 0.00 0.00 0.00 89 1059.0
20260506082156 56 6 2.6 3.5 0.00 0.00 0.00 89 1058.8
20260506081654 56 21 1.7 3.5 0.00 0.00 0.00 89 1058.7
20260506081152 56 312 3.5 5.2 0.00 0.00 0.00 88 1058.9
20260506080650 56 354 0.9 3.5 0.00 0.00 0.00 89 1059.0
20260506080146 57 78 1.7 2.6 0.00 0.00 0.00 89 1058.8
20260506073130 56 334 2.6 2.6 0.00 0.00 0.00 90 1058.6
20260506072627 56 71 0.0 2.6 0.00 0.00 0.00 90 1058.6
20260506072125 56 16 1.7 3.5 0.00 0.00 0.00 90 1058.6
20260506071622 56 304 1.7 2.6 0.00 0.00 0.00 90 1058.6
20260506071119 57 355 0.0 2.6 0.00 0.00 0.00 90 1058.5
20260506070616 57 345 0.9 1.7 0.00 0.00 0.00 89 1058.6
20260506070114 57 305 0.0 1.7 0.00 0.00 0.00 89 1058.5
20260506062050 58 16 0.9 1.7 0.00 0.00 0.00 85 1057.9
20260506061546 59 36 0.9 2.6 0.00 0.00 0.00 84 1058.0
20260506061044 59 16 0.9 2.6 0.00 0.00 0.00 84 1058.0
20260506060542 59 3 0.0 1.7 0.00 0.00 0.00 84 1058.0
20260506051011 62 20 0.9 2.6 0.00 0.00 0.00 82 1058.3
20260506050509 63 46 3.5 5.2 0.00 0.00 0.00 81 1058.3
20260506044959 64 33 0.9 2.6 0.00 0.00 0.00 80 1058.3
20260506044458 64 79 0.0 3.5 0.00 0.00 0.00 80 1058.1
20260506043954 64 8 0.9 1.7 0.00 0.00 0.00 80 1058.2
20260506043451 64 63 1.7 2.6 0.00 0.00 0.00 79 1058.1
20260506042949 64 38 0.9 2.6 0.00 0.00 0.00 79 1058.0
20260506042448 64 40 4.3 7.0 0.00 0.00 0.00 79 1057.8
20260506041946 65 46 0.9 5.2 0.00 0.00 0.00 78 1057.9
20260506041444 65 78 0.9 2.6 0.00 0.00 0.00 78 1057.7
20260506040941 65 63 1.7 6.1 0.00 0.00 0.00 77 1057.9
20260506040438 65 74 0.9 3.5 0.00 0.00 0.00 77 1057.9
20260506035934 66 72 0.9 2.6 0.00 0.00 0.00 77 1057.7
20260506035432 66 285 1.7 2.6 0.00 0.00 0.00 77 1057.8
20260506034928 66 81 0.9 2.6 0.00 0.00 0.00 77 1057.6
20260506034425 66 45 0.9 1.7 0.00 0.00 0.00 76 1057.7
20260506033922 66 93 0.9 0.9 0.00 0.00 0.00 76 1057.8
20260506033420 66 41 0.9 2.6 0.00 0.00 0.00 75 1057.8
20260506032916 67 43 2.6 6.1 0.00 0.00 0.00 75 1057.7
20260506032413 67 5 0.9 3.5 0.00 0.00 0.00 74 1057.7
20260506031910 67 33 0.9 2.6 0.00 0.00 0.00 74 1057.7
20260506031407 67 29 1.7 2.6 0.00 0.00 0.00 73 1057.5
20260506030905 68 57 3.5 5.2 0.00 0.00 0.00 74 1057.3
20260506030403 68 17 0.9 2.6 0.00 0.00 0.00 74 1056.9
20260506025859 68 70 0.9 2.6 0.00 0.00 0.00 73 1056.8
20260506025356 68 20 0.9 3.5 0.00 0.00 0.00 74 1056.7
20260506024853 68 114 0.0 2.6 0.00 0.00 0.00 74 1056.6
20260506024350 69 29 0.9 5.2 0.00 0.00 0.00 74 1056.5
20260506023846 69 256 0.0 2.6 0.00 0.00 0.00 74 1056.4
20260506023343 69 31 1.7 7.0 0.00 0.00 0.00 73 1056.1
20260506022840 70 17 0.9 3.5 0.00 0.00 0.00 73 1055.9
20260506022337 70 20 0.9 3.5 0.00 0.00 0.00 73 1055.8
20260506021835 70 78 1.7 5.2 0.00 0.00 0.00 72 1055.9
20260506021332 71 79 2.6 6.1 0.00 0.00 0.00 72 1056.0
20260506020828 71 93 0.0 6.1 0.00 0.00 0.00 72 1055.7
20260506020326 72 26 1.7 5.2 0.00 0.00 0.00 72 1055.4
20260506015824 72 71 1.7 7.0 0.00 0.00 0.00 71 1055.2
20260506015321 73 350 0.9 2.6 0.00 0.00 0.00 71 1054.9
20260506014818 73 41 1.7 6.1 0.00 0.00 0.00 70 1054.9
20260506014315 73 19 2.6 5.2 0.00 0.00 0.00 70 1054.5
20260506013811 74 51 1.7 3.5 0.00 0.00 0.00 69 1054.4
20260506013309 75 17 3.5 3.5 0.00 0.00 0.00 68 1054.4